Location: Caravana Trailer Lodge
(33.7420°N, 117.9542°W)
Time: 12:20:29
(UTC+00:00)

Daily predictions for brighter satellites

Satellite Brightness Start Highest point End
(mag) Time Altitude Azimuth Time Altitude Azimuth Time Altitude Azimuth
COSMOS 2428 3.5 12:00:13 10° NW 12:05:03 29° WSW 12:09:52 10° SSW
Delta 2 Rocket 4.2 12:03:09 10° W 12:07:25 38° SSW 12:12:07 10° SE
CZ-4C R/B 4.4 12:04:29 10° SSE 12:08:42 57° ENE 12:13:00 10° N
Cosmos 2219 3.5 12:08:04 10° SW 12:13:36 54° WNW 12:19:08 10° N
Cosmos 1544 2.9 12:10:53 10° S 12:14:23 88° W 12:17:54 10° N
OAO 3 Rocket 3.3 12:10:05 10° W 12:15:01 84° N 12:19:56 10° E
